Wetbulb
55.59 55.77 55.94 55.96 56.12 56.14 56.12 55.95 56.13 56.19 56.30 56.44 56.56 56.97 57.50 57.96 58.49 59.36 60.34 61.36 61.51 61.65 61.75 61.98 62.26 62.56 62.91 63.22 63.35 63.27 63.17 63.06 63.00 62.84 62.82 62.99 63.12 63.00 62.80 62.59 62.47 62.20 61.90 61.51 61.06 60.63 60.27 60.08 59.68 59.46 59.35 59.20 58.85 58.35 58.07 58.12 57.82 57.62 57.48 57.42 57.46 57.55 57.63 57.51 57.31 57.21 57.37 57.73 57.94
55.52 55.79 56.00 56.11 56.27 56.46 56.58 56.28 56.20 56.27 56.48 56.66 57.02 57.39 57.84 58.37 58.87 59.67 60.52 61.39 61.66 61.84 61.98 62.03 62.18 62.49 62.78 63.05 63.22 63.18 63.00 62.83 62.75 62.60 62.55 62.77 63.00 62.84 62.67 62.41 62.31 62.08 61.83 61.27 60.87 60.42 60.09 59.73 59.37 59.10 58.96 58.89 58.80 58.35 57.95 58.22 58.04 57.65 57.39 57.20 57.56 57.81 58.01 57.93 57.72 57.62 57.65 58.02 58.17
55.35 55.62 55.79 55.91 56.14 56.42 56.69 56.70 56.67 56.79 56.95 57.24 57.44 57.94 58.53 58.93 59.47 60.14 60.91 61.48 61.75 61.97 62.02 61.90 62.00 62.23 62.52 62.88 62.93 62.88 62.69 62.64 62.51 62.30 62.26 62.43 62.62 62.50 62.26 62.05 62.07 61.89 61.54 61.08 60.78 60.42 60.00 59.54 59.31 59.09 58.86 58.77 58.49 58.14 57.90 58.05 58.03 57.75 57.42 57.29 57.55 57.91 58.17 58.29 58.21 58.13 58.13 58.37 58.40
55.52 55.67 55.85 55.92 55.91 56.18 56.49 56.71 56.99 57.31 57.72 57.95 58.32 58.73 59.14 59.47 59.91 60.54 61.13 61.47 61.54 61.83 61.98 61.85 61.83 62.06 62.36 62.56 62.42 62.32 62.31 62.20 62.10 61.99 61.87 61.96 61.99 61.86 61.69 61.64 61.63 61.45 61.27 60.97 60.45 60.13 59.86 59.62 59.49 59.36 59.18 58.81 58.51 58.20 58.10 58.19 58.04 57.82 57.64 57.57 57.78 57.95 58.17 58.40 58.60 58.55 58.52 58.51 58.57
56.19 56.47 56.51 56.60 56.31 56.24 56.44 56.76 57.00 57.61 58.22 58.75 58.95 59.23 59.54 59.75 60.11 60.64 61.13 61.35 61.48 61.75 61.93 61.98 61.78 61.88 62.01 62.03 61.80 61.65 61.64 61.63 61.41 61.41 61.51 61.39 61.30 61.21 61.16 61.15 61.11 61.06 60.97 60.74 60.18 59.77 59.59 59.44 59.49 59.55 59.37 59.14 58.94 58.76 58.60 58.52 58.25 58.04 57.89 57.86 57.98 58.08 58.24 58.45 58.79 58.85 58.85 58.68 58.77
57.01 57.14 57.32 57.50 57.44 57.23 56.98 56.93 57.11 57.66 58.41 59.02 59.30 59.45 59.56 59.74 60.09 60.52 60.87 61.12 61.39 61.69 61.87 61.67 61.42 61.44 61.43 61.51 61.18 61.08 61.08 61.12 61.06 61.15 60.97 60.63 60.54 60.58 60.63 60.67 60.67 60.67 60.62 60.47 60.03 59.68 59.41 59.31 59.37 59.37 59.42 59.37 59.34 59.27 59.10 59.02 58.75 58.32 57.96 57.84 58.01 58.22 58.45 58.62 58.89 59.12 59.05 58.79 58.76
57.33 57.46 57.64 57.82 58.17 58.22 58.11 57.71 57.59 57.84 58.34 58.93 59.21 59.26 59.39 59.63 60.04 60.45 60.87 61.06 61.43 61.57 61.57 61.29 61.26 61.21 61.16 61.01 60.78 60.63 60.63 60.63 60.76 60.66 60.52 60.13 59.97 59.97 60.05 60.18 60.18 60.22 60.22 60.16 59.92 59.62 59.37 59.32 59.26 59.16 59.21 59.34 59.41 59.40 59.42 59.47 59.27 58.75 58.23 57.91 58.13 58.43 58.56 58.63 59.07 59.19 59.07 58.75 58.66
57.27 57.54 57.81 57.95 58.26 58.49 58.71 58.85 58.60 58.44 58.51 58.81 59.10 59.19 59.32 59.43 59.92 60.42 60.85 61.06 61.35 61.39 61.45 61.30 61.24 61.19 61.06 60.82 60.54 60.31 60.27 60.27 60.28 60.24 60.06 59.79 59.57 59.51 59.65 59.79 59.79 59.79 59.82 59.89 59.79 59.63 59.42 59.43 59.30 59.24 59.15 59.26 59.33 59.43 59.47 59.54 59.30 58.93 58.52 58.10 58.33 58.60 58.88 58.98 59.18 59.22 59.17 58.93 58.71
57.19 57.54 57.81 57.93 58.20 58.57 58.94 59.36 59.36 59.26 59.16 59.05 59.27 59.26 59.38 59.59 59.89 60.37 60.81 61.08 61.30 61.39 61.45 61.33 61.19 61.00 60.91 60.72 60.49 60.31 60.18 60.09 60.02 59.88 59.70 59.52 59.30 59.25 59.25 59.39 59.39 59.43 59.51 59.73 59.68 59.55 59.47 59.48 59.32 59.21 59.21 59.26 59.33 59.39 59.53 59.55 59.31 59.05 58.77 58.59 58.55 58.70 58.92 59.08 59.23 59.27 59.26 59.07 58.85
57.05 57.41 57.72 57.99 58.21 58.57 58.89 59.28 59.37 59.37 59.31 59.44 59.45 59.52 59.60 59.59 59.94 60.42 60.86 61.21 61.34 61.39 61.41 61.33 61.10 60.96 60.82 60.63 60.45 60.31 60.22 60.18 60.00 59.84 59.62 59.44 59.17 59.12 59.12 59.11 59.11 59.11 59.25 59.43 59.52 59.47 59.47 59.42 59.30 59.24 59.23 59.37 59.32 59.43 59.53 59.57 59.37 59.16 59.00 58.96 58.75 58.75 58.79 59.01 59.08 59.12 59.13 59.09 58.99
57.09 57.36 57.72 58.00 58.17 58.49 58.81 58.92 59.06 59.10 59.10 59.28 59.67 59.87 59.90 59.83 60.19 60.71 61.00 61.43 61.35 61.27 61.23 61.22 61.00 60.82 60.73 60.63 60.45 60.40 60.27 60.27 60.10 59.93 59.66 59.44 59.26 59.12 59.07 59.11 59.06 59.06 59.15 59.25 59.39 59.39 59.39 59.30 59.11 59.07 59.02 59.24 59.32 59.37 59.48 59.57 59.42 59.22 59.12 59.05 58.93 58.77 58.75 58.83 59.04 59.09 59.09 58.99 58.99
57.31 57.49 57.72 57.86 58.22 58.54 58.87 58.83 58.92 59.05 59.04 59.14 59.55 59.90 60.10 60.31 60.61 60.77 60.89 61.23 61.09 61.13 61.12 61.21 60.94 60.76 60.73 60.69 60.50 60.42 60.33 60.28 60.15 59.93 59.75 59.53 59.44 59.30 59.21 59.11 59.15 59.10 59.15 59.20 59.39 59.35 59.26 59.11 58.98 58.80 58.80 58.97 59.14 59.38 59.43 59.48 59.38 59.23 59.04 59.02 58.95 58.85 58.73 58.84 59.01 59.20 59.24 59.13 58.99
57.09 57.32 57.47 57.61 58.01 58.46 58.83 58.88 58.92 58.91 58.99 59.10 59.41 59.77 60.13 60.40 60.51 60.62 60.65 60.79 60.87 60.95 61.08 61.17 61.07 60.98 60.85 60.68 60.55 60.47 60.38 60.15 60.02 59.93 59.71 59.62 59.57 59.48 59.35 59.21 59.11 59.11 59.21 59.25 59.39 59.30 59.21 59.02 58.93 58.75 58.61 58.70 58.97 59.25 59.30 59.43 59.33 59.14 59.04 58.85 58.79 58.81 58.78 58.89 59.07 59.25 59.24 59.13 58.93
56.56 56.62 56.81 56.99 57.34 57.98 58.57 58.74 58.83 58.87 58.96 59.04 59.37 59.73 60.00 60.23 60.33 60.38 60.49 60.53 60.66 60.83 60.95 61.03 60.94 60.90 60.85 60.68 60.55 60.42 60.33 60.20 59.97 59.84 59.71 59.62 59.70 59.57 59.48 59.30 59.21 59.11 59.11 59.25 59.30 59.25 59.06 58.98 58.88 58.70 58.60 58.51 58.73 58.92 59.20 59.37 59.28 59.23 59.04 58.89 58.74 58.76 58.91 59.07 59.24 59.39 59.30 59.06 58.89
55.99 55.87 55.91 56.21 56.80 57.52 58.20 58.47 58.65 58.83 58.92 59.05 59.42 59.79 59.93 60.02 60.08 60.17 60.32 60.36 60.44 60.61 60.78 60.78 60.78 60.78 60.68 60.63 60.54 60.45 60.32 60.28 60.06 59.93 59.75 59.66 59.70 59.65 59.60 59.52 59.30 59.21 59.26 59.30 59.30 59.21 59.01 58.87 58.78 58.78 58.68 58.49 58.52 58.61 58.89 59.17 59.26 59.21 59.24 59.08 58.97 59.00 59.02 59.20 59.39 59.49 59.34 59.14 58.91
55.32 55.28 55.49 56.06 56.82 57.31 57.72 58.14 58.52 58.75 59.03 59.26 59.57 59.80 59.94 59.99 60.08 60.13 60.13 60.13 60.18 60.41 60.53 60.47 60.52 60.61 60.56 60.42 60.45 60.45 60.31 60.23 60.05 59.87 59.79 59.65 59.65 59.65 59.60 59.57 59.43 59.39 59.39 59.35 59.26 59.21 59.05 58.99 58.95 58.76 58.60 58.54 58.49 58.48 58.71 58.85 59.08 59.17 59.20 59.22 59.20 59.19 59.13 59.19 59.39 59.44 59.49 59.28 59.02
54.82 54.94 55.51 56.49 56.94 57.26 57.58 57.91 58.43 58.77 59.09 59.54 59.67 59.85 59.94 60.04 60.13 59.95 59.77 59.86 60.10 60.19 60.18 60.26 60.35 60.44 60.26 60.07 60.28 60.32 60.22 60.05 59.91 59.82 59.78 59.68 59.59 59.60 59.46 59.47 59.52 59.57 59.66 59.52 59.43 59.19 59.10 59.07 59.01 58.91 58.71 58.51 58.40 58.44 58.58 58.67 58.91 59.00 59.07 59.19 59.18 59.26 59.26 59.08 59.34 59.49 59.49 59.34 59.07
54.86 55.15 55.77 56.70 57.21 57.49 57.72 58.10 58.48 58.72 59.13 59.63 59.81 59.85 60.04 60.08 60.04 59.86 59.73 59.73 59.96 59.91 59.91 60.09 60.32 60.26 60.13 60.03 60.16 60.11 60.11 59.97 59.83 59.83 59.82 59.82 59.77 59.72 59.68 59.55 59.59 59.73 59.73 59.73 59.50 59.27 59.07 59.01 58.90 58.85 58.69 58.54 58.52 58.47 58.60 58.69 58.83 59.01 59.01 59.06 59.10 59.08 59.12 59.07 59.24 59.44 59.53 59.49 59.24
55.20 55.63 56.16 56.92 57.63 58.01 58.25 58.39 58.59 58.82 59.18 59.63 59.76 59.90 59.99 60.04 59.99 59.91 59.77 59.78 59.77 59.86 59.91 59.91 60.09 60.13 60.09 59.99 60.08 59.99 59.85 59.93 59.83 59.78 59.77 59.95 59.90 59.85 59.71 59.66 59.71 59.76 59.81 59.77 59.63 59.35 59.15 59.05 59.00 58.90 58.79 58.64 58.60 58.54 58.63 58.84 58.96 59.06 59.02 58.89 58.84 58.74 58.78 58.86 58.93 59.27 59.44 59.57 59.43
56.02 56.23 56.72 57.41 58.04 58.38 58.53 58.45 58.55 58.82 59.18 59.59 59.62 59.67 59.81 59.90 59.99 59.85 59.72 59.73 59.73 59.91 59.94 59.90 59.90 59.95 59.95 59.90 59.99 59.90 59.99 60.08 59.97 59.88 59.82 59.95 59.91 59.82 59.81 59.74 59.79 59.74 59.71 59.71 59.63 59.39 59.34 59.24 59.10 59.01 58.86 58.67 58.50 58.42 58.41 58.67 58.83 58.82 58.82 58.78 58.56 58.33 58.28 58.35 58.51 58.83 59.10 59.27 59.35
54.96 55.86 56.71 57.79 58.43 58.66 58.63 58.46 58.60 58.82 59.14 59.22 59.31 59.35 59.54 59.68 59.80 59.76 59.62 59.59 59.73 59.81 59.85 59.80 59.75 59.71 59.71 59.75 59.75 59.89 59.98 60.12 60.15 60.11 59.97 59.97 59.88 59.84 59.83 59.82 59.80 59.71 59.72 59.73 59.49 59.39 59.34 59.24 59.15 59.06 58.97 58.74 58.44 58.22 58.17 58.22 58.26 58.24 58.24 58.47 58.15 57.92 57.69 57.77 57.95 58.23 58.50 58.71 58.79
49.14 50.00 51.13 52.85 55.84 57.60 58.46 58.64 58.72 58.91 59.00 59.00 59.00 59.09 59.18 59.28 59.40 59.49 59.49 59.49 59.59 59.58 59.62 59.57 59.57 59.57 59.57 59.57 59.51 59.70 59.75 59.93 60.15 60.24 60.15 60.10 60.02 59.93 59.84 59.84 59.73 59.60 59.46 59.37 59.27 59.17 59.07 58.89 58.94 58.94 58.85 58.68 58.41 58.09 57.91 57.83 57.74 57.61 57.56 57.64 57.46 57.33 57.14 57.14 57.45 57.63 57.76 57.88 57.65
47.65 47.97 48.29 48.69 50.14 52.22 54.53 56.84 57.87 58.13 58.05 57.96 58.05 58.33 58.69 59.00 59.14 59.13 59.22 59.22 59.22 59.17 59.22 59.30 59.30 59.39 59.39 59.38 59.33 59.25 59.11 59.22 59.48 59.70 59.93 60.00 60.05 60.06 59.97 59.93 59.66 59.43 59.20 59.23 59.04 58.91 58.77 58.47 58.46 58.54 58.54 58.38 58.06 57.79 57.61 57.52 57.30 57.17 57.08 56.94 56.81 56.63 56.49 56.44 56.75 56.93 56.97 56.87 56.42
47.25 47.56 47.74 47.97 47.97 48.28 49.01 50.13 51.35 52.31 52.90 53.35 54.31 55.35 56.52 57.65 58.33 58.73 58.91 58.90 58.85 58.81 58.85 59.04 59.08 59.08 59.03 59.08 58.99 58.86 58.64 58.42 58.51 58.60 58.77 59.07 59.43 59.60 59.70 59.75 59.57 59.38 59.28 59.23 58.69 58.32 58.14 58.07 58.11 58.20 58.06 57.98 57.66 57.52 57.39 57.21 57.08 56.81 56.67 56.41 56.14 55.87 55.69 55.69 56.00 56.18 56.13 55.81 55.55
46.66 46.89 47.02 47.16 47.38 47.56 47.65 47.70 47.70 47.97 48.29 48.74 49.46 50.32 51.54 53.22 55.26 56.79 57.92 58.50 58.58 58.57 58.53 58.58 58.68 58.77 58.86 58.82 58.73 58.55 58.33 57.92 57.78 57.65 57.65 57.78 58.09 58.40 58.75 59.02 59.21 59.28 59.15 58.52 56.66 56.08 56.25 56.96 57.47 57.79 57.93 57.66 57.44 57.26 57.17 56.99 56.76 56.54 56.27 55.96 55.46 55.10 54.84 54.70 54.92 55.14 55.23 54.96 54.78
46.21 46.21 46.26 46.35 46.48 46.66 46.89 47.11 47.25 47.47 47.56 47.74 47.83 47.97 48.24 48.92 50.18 51.90 53.58 55.30 56.43 57.37 58.00 58.35 58.53 58.49 58.50 58.68 58.49 58.37 58.18 57.91 57.64 57.33 57.06 56.92 57.06 57.42 57.78 58.04 58.26 58.53 58.21 56.77 55.46 55.17 55.47 56.18 56.36 56.86 57.42 57.75 57.31 57.04 56.95 56.86 56.41 56.14 55.87 55.41 54.92 54.47 54.06 53.71 53.71 53.85 53.93 53.75 53.43
45.67 45.67 45.76 45.90 45.81 45.85 45.90 46.26 46.48 46.66 46.89 47.07 47.16 47.20 47.29 47.56 47.70 47.92 48.42 49.42 51.14 53.22 55.21 56.74 57.55 57.64 57.73 58.35 58.22 58.13 58.08 58.08 57.76 57.40 56.99 56.82 56.69 56.87 57.01 57.19 57.37 57.37 56.83 55.16 54.52 54.64 55.16 55.77 55.77 56.00 56.51 57.52 57.26 57.04 56.81 56.68 55.96 55.60 55.23 54.69 54.29 53.97 53.52 52.98 52.67 52.40 52.04 51.59 51.09
45.27 45.31 45.31 45.27 45.27 45.27 45.40 45.58 45.67 45.85 46.03 46.30 46.44 46.66 46.89 47.07 47.07 47.07 47.11 47.29 47.97 49.05 50.55 52.05 53.63 55.39 56.97 57.82 57.72 57.72 57.85 57.85 57.67 57.53 57.16 56.94 56.67 56.59 56.73 56.92 56.96 56.34 55.21 53.67 53.80 54.33 54.95 55.42 55.38 55.34 55.66 56.49 56.94 56.81 56.26 55.95 55.23 54.78 54.47 53.88 53.56 53.20 52.84 52.43 51.80 50.99 50.27 49.33 48.78
45.08 45.13 45.00 44.82 44.77 44.86 44.95 44.99 45.04 45.13 45.40 45.67 45.94 46.12 46.26 46.26 46.30 46.35 46.53 46.71 46.84 47.07 47.56 48.38 49.74 51.41 53.04 54.13 54.98 55.92 56.68 57.17 57.34 57.29 56.94 56.54 56.41 56.50 56.59 56.68 56.64 55.61 54.08 52.68 53.40 53.98 54.28 54.59 54.77 54.91 55.09 55.37 55.91 55.87 55.41 54.64 54.10 53.79 53.43 53.11 52.75 52.52 52.12 51.62 50.86 50.05 49.10 48.15 47.56
44.99 44.95 44.77 44.50 44.45 44.45 44.50 44.59 44.77 44.95 45.08 45.35 45.36 45.40 45.36 45.36 45.40 45.49 45.67 45.85 46.07 46.43 46.98 47.61 48.02 48.15 48.47 49.19 50.55 52.05 53.40 54.35 55.64 56.23 56.18 55.91 55.87 55.96 55.96 55.87 56.14 55.29 53.90 52.59 53.31 53.66 53.71 53.66 53.79 54.10 54.37 54.15 54.06 54.06 53.88 53.20 52.93 52.62 52.30 51.99 51.76 51.44 50.99 50.36 49.55 48.92 48.24 47.70 47.02
44.73 44.64 44.59 44.41 44.27 44.23 44.32 44.50 44.59 44.72 44.81 44.86 44.77 44.68 44.68 44.54 44.59 44.77 44.99 45.17 45.57 46.07 46.62 46.93 46.89 46.93 47.11 47.52 48.20 48.88 49.78 50.96 52.68 53.89 54.70 55.32 55.05 55.01 54.92 54.97 55.02 54.26 53.36 52.50 53.17 53.40 53.31 53.13 52.99 53.08 53.16 52.89 52.80 52.71 52.53 52.03 51.76 51.58 51.35 50.99 50.58 50.18 49.73 49.14 48.60 48.15 47.74 47.34 46.84
44.28 44.28 44.28 44.14 44.05 44.09 44.23 44.36 44.45 44.50 44.46 44.32 44.19 44.14 44.09 44.05 44.27 44.54 44.81 45.08 45.26 45.53 45.85 46.07 46.12 46.30 46.52 46.89 47.16 47.47 47.83 48.33 49.33 50.55 51.82 52.90 53.26 53.30 53.26 53.40 53.58 53.22 52.63 52.14 52.99 53.26 53.13 52.94 52.67 52.49 52.36 51.95 51.85 51.58 51.26 50.99 50.68 50.49 50.22 49.86 49.46 49.10 48.78 48.51 47.97 47.56 47.25 47.16 46.98
43.70 43.83 43.83 43.78 43.78 43.91 44.05 44.18 44.18 44.14 44.01 43.92 43.74 43.69 43.64 43.73 44.00 44.36 44.59 44.90 44.99 44.95 44.99 45.08 45.26 45.49 45.67 46.07 46.30 46.57 46.80 47.11 47.43 47.97 48.51 49.33 50.01 50.46 50.73 50.87 51.28 51.41 51.59 51.73 52.72 53.13 53.08 52.90 52.67 52.40 51.99 51.44 51.31 50.81 50.27 50.00 49.64 49.28 48.87 48.56 48.33 48.06 47.79 47.56 47.38 47.16 47.02 47.07 47.02
43.11 43.29 43.34 43.38 43.47 43.65 43.78 43.92 43.92 43.83 43.65 43.42 43.42 43.37 43.37 43.37 43.51 43.73 44.05 44.40 44.59 44.68 44.68 44.85 44.94 45.12 45.39 45.67 45.85 46.07 46.39 46.75 46.93 47.07 47.38 47.74 48.20 48.42 48.47 48.51 48.97 49.42 50.15 51.19 52.27 52.81 52.90 52.80 52.53 52.12 51.63 51.04 50.27 49.59 49.05 48.65 48.24 47.74 47.29 46.98 46.89 46.84 46.84 46.75 46.66 46.66 46.66 46.66 46.71
42.53 42.66 42.75 42.89 43.02 43.20 43.42 43.47 43.47 43.43 43.20 43.02 43.01 43.06 43.10 43.10 43.19 43.32 43.64 44.13 44.32 44.36 44.49 44.63 44.86 45.04 45.13 45.31 45.44 45.53 45.71 45.89 46.16 46.52 46.79 47.11 47.16 47.02 46.98 47.07 47.56 48.24 49.19 50.73 51.55 51.90 52.09 52.13 51.72 51.13 50.36 49.46 48.38 47.79 47.43 46.98 46.48 46.07 45.76 45.53 45.44 45.53 45.58 45.71 45.71 45.85 45.94 45.98 45.98
41.99 42.13 42.22 42.39 42.57 42.75 42.93 43.06 43.02 42.98 42.88 42.74 42.65 42.69 42.74 42.88 43.05 43.28 43.64 43.96 43.96 43.91 43.87 44.09 44.27 44.41 44.45 44.54 44.68 44.85 44.94 44.99 45.26 45.62 45.98 46.25 46.21 46.03 45.85 45.89 46.52 47.29 48.29 49.65 50.14 50.41 50.59 50.45 49.96 49.14 48.19 47.02 46.30 45.94 45.76 45.53 45.12 44.72 44.54 44.40 44.26 44.22 44.31 44.49 44.63 44.76 45.04 45.22 45.35
41.53 41.57 41.70 41.78 41.99 42.26 42.48 42.66 42.61 42.57 42.56 42.47 42.47 42.51 42.55 42.69 42.83 43.19 43.46 43.60 43.37 43.24 43.24 43.46 43.55 43.64 43.68 43.81 43.86 44.04 44.27 44.49 44.49 44.67 44.85 45.13 45.13 45.03 44.90 44.94 45.30 45.98 46.89 48.02 48.56 48.78 48.78 48.60 48.10 47.29 46.30 45.17 44.67 44.45 44.31 44.18 43.86 43.59 43.32 43.05 42.91 42.95 43.09 43.32 43.45 43.68 43.99 44.22 44.50
40.95 41.04 41.16 41.24 41.43 41.73 41.95 42.17 42.16 42.20 42.20 42.29 42.42 42.55 42.60 42.60 42.69 42.83 43.05 43.23 42.83 42.69 42.60 42.78 42.83 43.05 43.32 43.54 43.54 43.59 43.68 43.86 43.91 43.77 43.77 43.86 44.04 44.04 44.04 43.95 44.22 44.80 45.62 46.57 47.11 47.29 47.34 47.25 46.80 46.26 45.40 44.36 43.95 43.72 43.54 43.23 42.82 42.46 42.05 41.78 41.59 41.59 41.82 42.19 42.41 42.68 42.91 43.23 43.41
40.53 40.67 40.76 40.80 40.93 41.10 41.31 41.47 41.63 41.80 42.02 42.20 42.33 42.47 42.51 42.42 42.50 42.64 42.82 42.87 42.59 42.37 42.14 42.01 42.09 42.50 42.91 43.18 43.09 43.00 43.00 43.05 43.19 43.18 42.96 42.91 43.00 43.14 43.23 43.18 43.40 43.94 44.71 45.58 45.94 46.21 46.26 46.21 45.99 45.58 44.95 44.18 43.68 43.32 43.09 42.55 41.92 41.33 41.01 40.65 40.46 40.42 40.60 41.10 41.41 41.69 42.00 42.37 42.82
40.26 40.28 40.33 40.47 40.57 40.66 40.74 40.86 41.15 41.54 41.89 42.02 42.02 42.20 42.15 42.19 42.37 42.46 42.55 42.55 42.28 41.97 41.74 41.37 41.37 41.73 42.19 42.55 42.37 42.19 42.05 42.19 42.28 42.41 42.37 42.27 42.37 42.37 42.37 42.59 42.77 43.22 44.04 44.85 45.27 45.40 45.54 45.54 45.27 44.91 44.41 43.46 43.09 42.91 42.64 42.01 41.20 40.56 40.15 39.97 39.79 39.74 39.74 40.06 40.64 41.05 41.37 41.78 42.59
39.80 39.85 39.90 40.04 40.19 40.37 40.45 40.52 40.78 41.18 41.54 41.75 41.80 42.02 42.15 42.24 42.10 42.10 42.10 41.92 41.65 41.42 41.15 40.87 40.69 40.79 41.06 41.29 41.28 41.06 40.83 40.74 40.96 41.32 41.51 41.51 41.64 41.74 41.78 41.91 41.96 42.32 43.18 44.22 44.81 45.00 44.95 44.91 44.64 44.32 43.78 42.78 42.41 42.37 42.19 41.65 40.75 39.97 39.52 39.47 39.43 39.34 39.29 39.29 39.83 40.33 40.74 41.19 42.00
MSLP
1002.15 1002.19 1002.19 1002.25 1002.27 1002.31 1002.33 1002.37 1002.43 1002.49 1002.55 1002.65 1002.69 1002.69 1002.71 1002.71 1002.65 1002.53 1002.37 1002.31 1002.25 1002.19 1002.19 1002.21 1002.31 1002.31 1002.25 1002.15 1002.13 1002.25 1002.43 1002.65 1002.93 1003.15 1003.37 1003.55 1003.77 1004.03 1004.25 1004.43 1004.69 1004.87 1005.05 1005.25 1005.53 1005.75 1005.99 1006.27 1006.69 1007.15 1007.59 1007.97 1008.33 1008.59 1008.77 1008.91 1009.03 1009.15 1009.25 1009.41 1009.71 1010.15 1010.49 1010.65 1010.77 1010.93 1011.13 1011.33 1011.47
1001.87 1001.87 1001.91 1001.93 1001.97 1002.03 1002.09 1002.13 1002.19 1002.27 1002.31 1002.33 1002.41 1002.43 1002.43 1002.37 1002.31 1002.21 1002.13 1001.99 1001.93 1001.87 1001.87 1001.93 1002.05 1002.09 1002.03 1001.87 1001.83 1001.97 1002.19 1002.37 1002.61 1002.87 1003.09 1003.31 1003.49 1003.75 1003.99 1004.21 1004.43 1004.61 1004.81 1005.05 1005.41 1005.65 1005.87 1006.15 1006.53 1006.99 1007.47 1007.93 1008.37 1008.71 1008.93 1008.99 1008.99 1008.99 1009.03 1009.19 1009.61 1010.09 1010.47 1010.61 1010.69 1010.77 1010.97 1011.19 1011.41
1001.65 1001.69 1001.71 1001.71 1001.75 1001.77 1001.81 1001.83 1001.87 1001.93 1001.99 1002.05 1002.09 1002.09 1002.09 1002.05 1001.99 1001.93 1001.81 1001.71 1001.65 1001.65 1001.69 1001.71 1001.83 1001.87 1001.81 1001.61 1001.61 1001.71 1001.87 1002.05 1002.27 1002.55 1002.83 1003.05 1003.25 1003.47 1003.71 1003.97 1004.21 1004.43 1004.65 1004.91 1005.27 1005.53 1005.71 1005.93 1006.25 1006.69 1007.21 1007.81 1008.41 1008.81 1008.99 1009.03 1008.87 1008.71 1008.75 1009.09 1009.61 1010.15 1010.47 1010.53 1010.55 1010.69 1010.87 1011.09 1011.31
1001.41 1001.43 1001.43 1001.43 1001.49 1001.49 1001.49 1001.49 1001.53 1001.55 1001.61 1001.69 1001.71 1001.75 1001.75 1001.69 1001.69 1001.61 1001.53 1001.47 1001.47 1001.47 1001.43 1001.47 1001.59 1001.65 1001.53 1001.31 1001.31 1001.41 1001.59 1001.81 1001.99 1002.25 1002.53 1002.77 1003.03 1003.25 1003.47 1003.69 1003.97 1004.19 1004.41 1004.71 1005.15 1005.47 1005.69 1005.87 1006.13 1006.49 1006.97 1007.55 1008.19 1008.61 1008.83 1008.81 1008.59 1008.43 1008.61 1009.13 1009.75 1010.19 1010.33 1010.37 1010.43 1010.55 1010.71 1010.97 1011.19
1001.05 1001.05 1001.05 1001.09 1001.13 1001.19 1001.21 1001.25 1001.25 1001.25 1001.25 1001.31 1001.37 1001.37 1001.37 1001.33 1001.33 1001.31 1001.27 1001.27 1001.25 1001.21 1001.19 1001.25 1001.41 1001.43 1001.31 1001.05 1000.99 1001.15 1001.37 1001.61 1001.81 1001.99 1002.25 1002.53 1002.77 1002.99 1003.21 1003.47 1003.69 1003.87 1004.13 1004.47 1004.91 1005.31 1005.61 1005.87 1006.09 1006.41 1006.83 1007.33 1007.83 1008.25 1008.43 1008.33 1008.19 1008.27 1008.71 1009.37 1009.83 1010.03 1010.09 1010.15 1010.25 1010.41 1010.59 1010.83 1011.05
1000.65 1000.65 1000.69 1000.71 1000.77 1000.83 1000.87 1000.91 1000.91 1000.93 1000.97 1001.03 1001.03 1001.03 1000.99 1001.03 1001.03 1001.03 1000.99 1000.99 1000.99 1000.97 1000.99 1001.09 1001.21 1001.27 1001.13 1000.87 1000.81 1000.97 1001.21 1001.47 1001.65 1001.81 1001.99 1002.27 1002.55 1002.81 1003.03 1003.27 1003.43 1003.69 1003.93 1004.27 1004.71 1005.15 1005.47 1005.69 1005.93 1006.31 1006.71 1007.15 1007.59 1007.87 1007.99 1007.97 1007.99 1008.37 1008.97 1009.53 1009.71 1009.77 1009.81 1009.93 1010.05 1010.25 1010.47 1010.71 1010.93
1000.31 1000.33 1000.33 1000.37 1000.43 1000.47 1000.49 1000.49 1000.55 1000.61 1000.69 1000.71 1000.69 1000.65 1000.65 1000.69 1000.75 1000.75 1000.71 1000.71 1000.81 1000.81 1000.83 1000.91 1001.05 1001.09 1000.93 1000.69 1000.65 1000.83 1001.09 1001.31 1001.53 1001.69 1001.87 1002.05 1002.31 1002.59 1002.81 1003.03 1003.31 1003.55 1003.77 1004.09 1004.55 1004.99 1005.27 1005.43 1005.71 1006.09 1006.53 1006.93 1007.31 1007.55 1007.71 1007.81 1008.09 1008.59 1009.13 1009.41 1009.49 1009.55 1009.61 1009.71 1009.87 1010.09 1010.31 1010.53 1010.77
1000.13 1000.13 1000.13 1000.13 1000.15 1000.19 1000.19 1000.21 1000.25 1000.31 1000.33 1000.37 1000.33 1000.31 1000.33 1000.41 1000.43 1000.47 1000.49 1000.53 1000.59 1000.61 1000.65 1000.75 1000.81 1000.77 1000.69 1000.49 1000.55 1000.71 1000.97 1001.19 1001.41 1001.61 1001.77 1001.93 1002.15 1002.37 1002.61 1002.87 1003.19 1003.43 1003.71 1004.05 1004.49 1004.87 1005.15 1005.31 1005.53 1005.87 1006.27 1006.69 1007.03 1007.31 1007.55 1007.83 1008.33 1008.81 1009.13 1009.27 1009.33 1009.37 1009.43 1009.53 1009.71 1009.93 1010.13 1010.31 1010.53
999.99 999.97 999.97 999.93 999.97 999.97 999.99 999.97 999.97 999.97 999.97 999.97 999.97 999.99 1000.03 1000.09 1000.19 1000.21 1000.25 1000.25 1000.27 1000.31 1000.41 1000.49 1000.53 1000.53 1000.47 1000.41 1000.47 1000.61 1000.83 1001.05 1001.31 1001.49 1001.69 1001.83 1002.03 1002.25 1002.53 1002.81 1003.05 1003.37 1003.71 1004.05 1004.41 1004.71 1004.93 1005.19 1005.49 1005.81 1006.15 1006.47 1006.75 1007.09 1007.49 1007.97 1008.49 1008.83 1009.05 1009.19 1009.27 1009.33 1009.37 1009.41 1009.55 1009.71 1009.91 1010.13 1010.33
999.77 999.77 999.77 999.81 999.77 999.77 999.81 999.77 999.75 999.69 999.65 999.61 999.61 999.65 999.75 999.81 999.87 999.91 999.91 999.91 999.97 1000.05 1000.15 1000.21 1000.27 1000.31 1000.31 1000.31 1000.37 1000.53 1000.75 1000.93 1001.15 1001.33 1001.55 1001.75 1001.97 1002.19 1002.43 1002.71 1002.99 1003.33 1003.71 1004.03 1004.31 1004.55 1004.81 1005.05 1005.41 1005.81 1006.13 1006.33 1006.59 1006.97 1007.47 1007.99 1008.41 1008.69 1008.91 1009.05 1009.13 1009.21 1009.27 1009.31 1009.37 1009.53 1009.71 1009.91 1010.09
999.47 999.49 999.53 999.55 999.53 999.55 999.55 999.55 999.53 999.49 999.47 999.43 999.37 999.37 999.41 999.49 999.55 999.59 999.61 999.65 999.75 999.77 999.83 999.93 999.99 1000.05 1000.13 1000.19 1000.27 1000.43 1000.61 1000.81 1001.03 1001.25 1001.49 1001.71 1001.97 1002.21 1002.43 1002.71 1002.99 1003.27 1003.59 1003.93 1004.21 1004.49 1004.77 1005.05 1005.41 1005.75 1006.05 1006.33 1006.61 1007.03 1007.47 1007.87 1008.15 1008.37 1008.59 1008.81 1008.97 1009.09 1009.15 1009.19 1009.25 1009.37 1009.53 1009.69 1009.83
999.21 999.25 999.27 999.27 999.27 999.31 999.33 999.33 999.27 999.31 999.31 999.31 999.25 999.19 999.15 999.19 999.25 999.31 999.41 999.47 999.43 999.43 999.53 999.69 999.77 999.83 999.91 1000.03 1000.19 1000.37 1000.55 1000.75 1000.97 1001.19 1001.41 1001.65 1001.97 1002.21 1002.49 1002.75 1002.99 1003.25 1003.53 1003.83 1004.15 1004.43 1004.75 1005.05 1005.37 1005.69 1005.99 1006.31 1006.61 1006.97 1007.31 1007.55 1007.77 1007.99 1008.25 1008.49 1008.75 1008.91 1008.99 1008.99 1009.05 1009.15 1009.27 1009.43 1009.65
999.05 999.09 999.09 999.05 999.03 999.05 999.09 999.13 999.13 999.15 999.15 999.15 999.13 999.05 998.97 998.97 999.03 999.13 999.21 999.21 999.15 999.15 999.25 999.41 999.49 999.59 999.71 999.87 1000.05 1000.25 1000.47 1000.71 1000.93 1001.15 1001.41 1001.69 1001.93 1002.25 1002.53 1002.77 1002.99 1003.25 1003.49 1003.75 1003.99 1004.27 1004.59 1004.91 1005.19 1005.53 1005.83 1006.13 1006.41 1006.69 1006.93 1007.15 1007.41 1007.69 1007.99 1008.27 1008.53 1008.69 1008.75 1008.81 1008.87 1008.97 1009.09 1009.25 1009.43
998.93 998.99 998.99 998.91 998.83 998.83 998.87 998.93 998.97 998.97 998.97 998.93 998.93 998.87 998.83 998.81 998.87 998.97 999.03 999.03 998.99 998.93 998.93 999.09 999.27 999.37 999.49 999.69 999.91 1000.13 1000.37 1000.69 1000.93 1001.19 1001.43 1001.71 1001.93 1002.19 1002.49 1002.75 1002.99 1003.21 1003.43 1003.65 1003.91 1004.15 1004.41 1004.69 1004.97 1005.25 1005.55 1005.87 1006.13 1006.33 1006.59 1006.83 1007.15 1007.47 1007.77 1007.99 1008.19 1008.33 1008.43 1008.55 1008.61 1008.75 1008.91 1009.09 1009.25
998.75 998.81 998.81 998.77 998.69 998.65 998.71 998.77 998.83 998.83 998.81 998.77 998.75 998.71 998.71 998.75 998.81 998.87 998.93 998.97 998.91 998.81 998.77 998.87 999.09 999.25 999.43 999.65 999.83 1000.13 1000.41 1000.69 1000.93 1001.19 1001.43 1001.69 1001.87 1002.13 1002.37 1002.69 1002.97 1003.19 1003.37 1003.59 1003.83 1004.09 1004.27 1004.49 1004.77 1005.03 1005.31 1005.59 1005.83 1006.09 1006.31 1006.59 1006.91 1007.27 1007.53 1007.69 1007.83 1007.99 1008.13 1008.25 1008.41 1008.55 1008.71 1008.93 1009.13
998.55 998.61 998.61 998.59 998.53 998.53 998.59 998.65 998.71 998.71 998.69 998.59 998.53 998.53 998.61 998.69 998.75 998.81 998.87 998.91 998.87 998.77 998.71 998.77 998.97 999.25 999.49 999.71 999.91 1000.13 1000.33 1000.59 1000.81 1001.05 1001.31 1001.53 1001.75 1001.99 1002.25 1002.53 1002.81 1003.05 1003.27 1003.49 1003.77 1004.03 1004.27 1004.47 1004.69 1004.91 1005.13 1005.37 1005.61 1005.87 1006.13 1006.41 1006.71 1007.05 1007.27 1007.43 1007.53 1007.69 1007.81 1007.97 1008.19 1008.37 1008.53 1008.75 1008.97
998.47 998.47 998.47 998.43 998.43 998.43 998.49 998.55 998.61 998.65 998.53 998.37 998.27 998.31 998.41 998.53 998.61 998.75 998.81 998.83 998.83 998.77 998.75 998.81 998.99 999.27 999.55 999.75 999.91 1000.05 1000.25 1000.49 1000.71 1000.93 1001.15 1001.37 1001.61 1001.87 1002.13 1002.33 1002.55 1002.83 1003.13 1003.37 1003.65 1003.93 1004.19 1004.41 1004.61 1004.81 1004.99 1005.19 1005.43 1005.69 1005.97 1006.27 1006.55 1006.83 1007.03 1007.15 1007.27 1007.43 1007.59 1007.77 1007.99 1008.19 1008.33 1008.59 1008.81
998.33 998.33 998.33 998.31 998.33 998.37 998.43 998.47 998.49 998.47 998.33 998.09 997.99 998.05 998.21 998.37 998.53 998.65 998.77 998.81 998.83 998.83 998.83 998.97 999.15 999.37 999.59 999.75 999.91 1000.03 1000.19 1000.41 1000.65 1000.87 1001.09 1001.31 1001.53 1001.75 1001.99 1002.19 1002.41 1002.65 1002.93 1003.21 1003.47 1003.75 1004.03 1004.27 1004.47 1004.69 1004.83 1005.03 1005.25 1005.49 1005.81 1006.15 1006.47 1006.69 1006.83 1006.99 1007.15 1007.27 1007.43 1007.61 1007.81 1007.99 1008.21 1008.43 1008.61
998.27 998.25 998.27 998.25 998.21 998.25 998.31 998.31 998.27 998.21 998.09 997.87 997.81 997.93 998.13 998.27 998.47 998.65 998.77 998.83 998.91 998.97 999.03 999.15 999.33 999.49 999.65 999.81 999.93 1000.05 1000.21 1000.41 1000.61 1000.87 1001.09 1001.27 1001.49 1001.69 1001.87 1002.05 1002.27 1002.53 1002.77 1003.05 1003.33 1003.59 1003.87 1004.13 1004.37 1004.55 1004.71 1004.93 1005.13 1005.41 1005.71 1006.09 1006.37 1006.59 1006.77 1006.91 1007.03 1007.15 1007.27 1007.47 1007.65 1007.83 1008.03 1008.25 1008.43
998.19 998.15 998.13 998.09 998.13 998.09 998.03 998.03 998.03 997.97 997.87 997.77 997.81 997.97 998.13 998.27 998.41 998.55 998.75 998.87 998.97 999.09 999.19 999.31 999.49 999.65 999.77 999.91 1000.03 1000.13 1000.27 1000.47 1000.65 1000.83 1001.05 1001.21 1001.43 1001.61 1001.77 1001.93 1002.13 1002.37 1002.69 1002.97 1003.25 1003.53 1003.77 1004.03 1004.25 1004.43 1004.61 1004.83 1005.05 1005.33 1005.69 1006.03 1006.27 1006.49 1006.65 1006.81 1006.93 1007.05 1007.19 1007.31 1007.53 1007.71 1007.91 1008.05 1008.27
998.47 998.27 998.05 997.83 997.81 997.81 997.83 997.87 997.87 997.81 997.75 997.77 997.93 998.05 998.15 998.25 998.33 998.47 998.65 998.83 999.03 999.15 999.27 999.37 999.49 999.65 999.83 999.99 1000.15 1000.27 1000.41 1000.53 1000.65 1000.81 1000.97 1001.15 1001.37 1001.53 1001.69 1001.83 1002.03 1002.27 1002.59 1002.91 1003.19 1003.43 1003.69 1003.91 1004.13 1004.31 1004.53 1004.75 1004.99 1005.31 1005.61 1005.93 1006.19 1006.41 1006.59 1006.71 1006.87 1007.03 1007.15 1007.31 1007.47 1007.61 1007.77 1007.93 1008.09
998.93 998.69 998.47 998.27 997.97 997.77 997.71 997.77 997.77 997.75 997.75 997.81 997.99 998.13 998.21 998.31 998.33 998.47 998.65 998.83 999.03 999.21 999.37 999.41 999.43 999.55 999.75 999.91 1000.09 1000.27 1000.41 1000.55 1000.69 1000.77 1000.93 1001.09 1001.31 1001.49 1001.65 1001.81 1002.03 1002.31 1002.59 1002.87 1003.13 1003.33 1003.53 1003.77 1003.99 1004.21 1004.47 1004.75 1004.99 1005.27 1005.59 1005.87 1006.13 1006.33 1006.53 1006.69 1006.83 1006.99 1007.19 1007.41 1007.49 1007.59 1007.69 1007.77 1007.91
999.21 999.05 998.99 998.91 998.65 998.41 998.15 997.99 997.91 997.93 998.03 998.15 998.25 998.31 998.33 998.43 998.47 998.53 998.65 998.87 999.09 999.27 999.37 999.43 999.47 999.55 999.69 999.81 999.97 1000.13 1000.27 1000.47 1000.61 1000.75 1000.87 1001.03 1001.25 1001.47 1001.65 1001.87 1002.13 1002.37 1002.59 1002.81 1003.03 1003.21 1003.43 1003.69 1003.93 1004.19 1004.43 1004.69 1004.97 1005.27 1005.53 1005.81 1006.05 1006.27 1006.47 1006.61 1006.81 1007.03 1007.25 1007.47 1007.53 1007.53 1007.55 1007.65 1007.71
999.55 999.47 999.43 999.37 999.19 999.05 998.97 998.91 998.83 998.83 998.87 998.87 998.77 998.65 998.61 998.61 998.65 998.65 998.71 998.91 999.09 999.25 999.37 999.43 999.53 999.59 999.69 999.77 999.91 1000.05 1000.21 1000.41 1000.53 1000.69 1000.81 1000.97 1001.13 1001.33 1001.55 1001.77 1002.05 1002.27 1002.49 1002.69 1002.87 1003.05 1003.31 1003.59 1003.87 1004.13 1004.37 1004.59 1004.83 1005.09 1005.31 1005.53 1005.77 1005.99 1006.25 1006.49 1006.75 1006.97 1007.21 1007.41 1007.41 1007.41 1007.41 1007.49 1007.55
999.93 999.87 999.87 999.83 999.75 999.65 999.59 999.55 999.53 999.49 999.43 999.37 999.27 999.19 999.15 999.13 999.03 998.93 998.87 998.93 999.03 999.15 999.31 999.43 999.53 999.61 999.75 999.83 999.93 1000.09 1000.25 1000.41 1000.55 1000.75 1000.87 1000.99 1001.13 1001.25 1001.43 1001.65 1001.87 1002.09 1002.31 1002.49 1002.71 1002.93 1003.15 1003.37 1003.69 1003.97 1004.21 1004.43 1004.69 1004.87 1005.05 1005.27 1005.53 1005.77 1006.05 1006.33 1006.59 1006.83 1007.05 1007.21 1007.25 1007.25 1007.27 1007.31 1007.41
1000.43 1000.41 1000.47 1000.47 1000.41 1000.31 1000.25 1000.21 1000.15 1000.05 999.93 999.83 999.77 999.71 999.69 999.65 999.61 999.53 999.41 999.27 999.21 999.21 999.25 999.33 999.47 999.61 999.75 999.87 999.99 1000.15 1000.31 1000.49 1000.65 1000.81 1000.97 1001.13 1001.25 1001.37 1001.47 1001.61 1001.77 1001.93 1002.13 1002.31 1002.55 1002.81 1003.03 1003.21 1003.47 1003.75 1004.03 1004.27 1004.53 1004.71 1004.93 1005.15 1005.41 1005.65 1005.91 1006.15 1006.43 1006.61 1006.81 1006.99 1007.09 1007.13 1007.19 1007.25 1007.31
1001.21 1001.27 1001.31 1001.19 1001.05 1000.99 1000.97 1000.91 1000.75 1000.59 1000.49 1000.43 1000.37 1000.33 1000.31 1000.25 1000.19 1000.13 1000.09 1000.03 999.91 999.69 999.53 999.49 999.53 999.61 999.75 999.87 1000.05 1000.21 1000.37 1000.55 1000.69 1000.83 1000.99 1001.19 1001.31 1001.47 1001.59 1001.69 1001.81 1001.93 1002.09 1002.25 1002.43 1002.69 1002.91 1003.13 1003.33 1003.55 1003.77 1004.03 1004.27 1004.49 1004.71 1005.03 1005.27 1005.53 1005.81 1006.05 1006.25 1006.41 1006.55 1006.69 1006.87 1006.99 1007.13 1007.25 1007.31
1001.99 1002.03 1001.97 1001.83 1001.77 1001.75 1001.65 1001.47 1001.31 1001.21 1001.15 1001.09 1001.05 1000.97 1000.87 1000.77 1000.71 1000.69 1000.65 1000.61 1000.47 1000.25 1000.09 1000.03 999.97 999.91 999.87 999.93 1000.09 1000.21 1000.33 1000.53 1000.65 1000.83 1000.99 1001.15 1001.27 1001.43 1001.59 1001.75 1001.87 1002.03 1002.15 1002.27 1002.43 1002.61 1002.81 1002.99 1003.21 1003.41 1003.59 1003.81 1004.05 1004.31 1004.59 1004.87 1005.15 1005.43 1005.69 1005.91 1006.05 1006.21 1006.33 1006.49 1006.69 1006.83 1007.03 1007.19 1007.27
1002.55 1002.55 1002.47 1002.33 1002.33 1002.27 1002.15 1002.03 1001.97 1001.91 1001.83 1001.75 1001.61 1001.47 1001.31 1001.21 1001.19 1001.15 1001.15 1001.05 1000.91 1000.77 1000.65 1000.59 1000.55 1000.47 1000.41 1000.33 1000.31 1000.31 1000.37 1000.49 1000.59 1000.75 1000.91 1001.09 1001.27 1001.41 1001.53 1001.71 1001.87 1002.03 1002.19 1002.37 1002.47 1002.61 1002.77 1002.97 1003.09 1003.25 1003.43 1003.71 1004.03 1004.31 1004.53 1004.75 1004.97 1005.21 1005.47 1005.69 1005.83 1005.99 1006.13 1006.31 1006.49 1006.69 1006.83 1007.03 1007.21
1003.03 1002.97 1002.87 1002.81 1002.75 1002.65 1002.59 1002.55 1002.53 1002.49 1002.41 1002.27 1002.09 1001.93 1001.81 1001.71 1001.65 1001.65 1001.59 1001.53 1001.43 1001.37 1001.27 1001.15 1001.05 1001.03 1001.03 1000.93 1000.77 1000.71 1000.71 1000.69 1000.69 1000.77 1000.91 1001.05 1001.21 1001.37 1001.53 1001.71 1001.83 1002.03 1002.19 1002.33 1002.47 1002.61 1002.77 1002.97 1003.05 1003.19 1003.37 1003.71 1004.03 1004.25 1004.47 1004.69 1004.87 1005.05 1005.27 1005.43 1005.61 1005.75 1005.91 1006.09 1006.27 1006.49 1006.69 1006.91 1007.15
1003.55 1003.47 1003.37 1003.27 1003.19 1003.19 1003.19 1003.13 1003.05 1002.99 1002.87 1002.71 1002.53 1002.41 1002.31 1002.25 1002.25 1002.25 1002.21 1002.15 1002.05 1001.93 1001.77 1001.61 1001.49 1001.41 1001.37 1001.31 1001.21 1001.19 1001.15 1001.15 1001.05 1001.03 1000.99 1001.05 1001.21 1001.37 1001.55 1001.75 1001.87 1002.03 1002.19 1002.33 1002.47 1002.61 1002.77 1002.93 1003.05 1003.21 1003.43 1003.71 1003.97 1004.21 1004.43 1004.59 1004.77 1004.93 1005.09 1005.25 1005.43 1005.55 1005.71 1005.91 1006.15 1006.33 1006.55 1006.77 1007.05
1004.19 1004.05 1003.97 1003.87 1003.81 1003.81 1003.77 1003.65 1003.53 1003.43 1003.27 1003.13 1002.99 1002.91 1002.83 1002.87 1002.83 1002.77 1002.71 1002.65 1002.55 1002.37 1002.19 1002.03 1001.93 1001.87 1001.81 1001.71 1001.69 1001.65 1001.69 1001.65 1001.59 1001.47 1001.37 1001.33 1001.37 1001.49 1001.61 1001.77 1001.93 1002.09 1002.25 1002.37 1002.49 1002.65 1002.77 1002.93 1003.13 1003.27 1003.47 1003.71 1003.97 1004.19 1004.41 1004.53 1004.65 1004.81 1004.97 1005.13 1005.27 1005.41 1005.59 1005.81 1006.05 1006.27 1006.49 1006.69 1006.97
1004.81 1004.69 1004.55 1004.47 1004.41 1004.31 1004.21 1004.09 1003.97 1003.81 1003.65 1003.53 1003.43 1003.41 1003.41 1003.37 1003.27 1003.19 1003.13 1003.05 1002.97 1002.83 1002.69 1002.55 1002.47 1002.37 1002.31 1002.25 1002.19 1002.19 1002.15 1002.13 1002.09 1001.99 1001.91 1001.81 1001.75 1001.75 1001.83 1001.99 1002.13 1002.21 1002.31 1002.41 1002.47 1002.59 1002.75 1002.87 1003.05 1003.27 1003.47 1003.65 1003.91 1004.19 1004.37 1004.53 1004.65 1004.81 1004.97 1005.13 1005.25 1005.37 1005.49 1005.69 1005.93 1006.21 1006.47 1006.65 1006.91
1005.43 1005.25 1005.13 1004.99 1004.87 1004.75 1004.61 1004.47 1004.31 1004.13 1003.97 1003.87 1003.83 1003.83 1003.83 1003.77 1003.69 1003.59 1003.53 1003.49 1003.37 1003.27 1003.15 1003.03 1002.91 1002.81 1002.71 1002.65 1002.59 1002.59 1002.59 1002.55 1002.53 1002.43 1002.33 1002.25 1002.19 1002.15 1002.21 1002.27 1002.37 1002.43 1002.41 1002.41 1002.43 1002.49 1002.61 1002.77 1002.97 1003.19 1003.43 1003.65 1003.87 1004.13 1004.31 1004.49 1004.69 1004.83 1005.03 1005.19 1005.33 1005.43 1005.53 1005.69 1005.93 1006.21 1006.47 1006.69 1006.99
1005.99 1005.81 1005.69 1005.53 1005.37 1005.21 1005.03 1004.87 1004.71 1004.55 1004.43 1004.37 1004.33 1004.31 1004.27 1004.21 1004.15 1004.13 1004.05 1003.97 1003.81 1003.69 1003.53 1003.37 1003.25 1003.13 1003.05 1002.99 1002.99 1002.99 1002.99 1002.97 1002.91 1002.83 1002.75 1002.69 1002.59 1002.55 1002.59 1002.65 1002.69 1002.65 1002.53 1002.43 1002.41 1002.47 1002.55 1002.71 1002.93 1003.19 1003.43 1003.71 1003.93 1004.13 1004.31 1004.47 1004.69 1004.87 1005.05 1005.25 1005.41 1005.55 1005.69 1005.83 1006.13 1006.41 1006.65 1006.93 1007.21
1006.59 1006.41 1006.25 1006.09 1005.93 1005.77 1005.59 1005.47 1005.31 1005.15 1005.03 1004.97 1004.97 1004.91 1004.81 1004.75 1004.65 1004.61 1004.55 1004.41 1004.25 1004.09 1003.93 1003.81 1003.65 1003.53 1003.47 1003.43 1003.43 1003.43 1003.47 1003.43 1003.37 1003.27 1003.19 1003.13 1003.03 1003.03 1003.05 1003.05 1003.03 1002.93 1002.77 1002.65 1002.59 1002.61 1002.71 1002.87 1003.13 1003.37 1003.65 1003.87 1004.05 1004.21 1004.33 1004.49 1004.71 1004.91 1005.09 1005.27 1005.49 1005.69 1005.87 1006.09 1006.37 1006.65 1006.91 1007.15 1007.41
1007.19 1006.97 1006.81 1006.65 1006.49 1006.33 1006.21 1006.05 1005.91 1005.77 1005.71 1005.65 1005.61 1005.55 1005.47 1005.31 1005.19 1005.09 1004.97 1004.81 1004.65 1004.53 1004.41 1004.31 1004.19 1004.09 1004.03 1003.97 1003.97 1003.93 1003.93 1003.91 1003.83 1003.77 1003.71 1003.61 1003.53 1003.49 1003.47 1003.47 1003.43 1003.37 1003.27 1003.19 1003.09 1003.13 1003.19 1003.31 1003.47 1003.69 1003.87 1004.05 1004.21 1004.37 1004.53 1004.65 1004.83 1005.03 1005.21 1005.47 1005.69 1005.87 1006.09 1006.33 1006.61 1006.91 1007.13 1007.33 1007.55
1007.75 1007.53 1007.33 1007.15 1007.03 1006.91 1006.75 1006.61 1006.49 1006.41 1006.33 1006.27 1006.19 1006.13 1005.99 1005.83 1005.71 1005.59 1005.47 1005.31 1005.19 1005.09 1004.97 1004.83 1004.75 1004.65 1004.59 1004.49 1004.43 1004.37 1004.31 1004.25 1004.25 1004.21 1004.19 1004.13 1004.05 1003.99 1003.93 1003.91 1003.91 1003.91 1003.83 1003.77 1003.75 1003.77 1003.81 1003.87 1003.97 1004.03 1004.09 1004.19 1004.33 1004.47 1004.61 1004.81 1004.97 1005.15 1005.41 1005.69 1005.93 1006.19 1006.41 1006.61 1006.91 1007.15 1007.37 1007.55 1007.71
1008.31 1008.09 1007.87 1007.69 1007.53 1007.41 1007.25 1007.13 1007.03 1006.97 1006.91 1006.81 1006.69 1006.55 1006.47 1006.33 1006.25 1006.15 1006.03 1005.91 1005.77 1005.65 1005.53 1005.43 1005.31 1005.21 1005.09 1004.97 1004.83 1004.75 1004.65 1004.59 1004.59 1004.59 1004.59 1004.59 1004.55 1004.47 1004.41 1004.37 1004.37 1004.41 1004.41 1004.37 1004.33 1004.37 1004.37 1004.41 1004.43 1004.43 1004.47 1004.47 1004.53 1004.59 1004.71 1004.91 1005.09 1005.33 1005.59 1005.87 1006.15 1006.43 1006.69 1006.91 1007.15 1007.43 1007.65 1007.83 1007.97
1008.83 1008.61 1008.41 1008.21 1008.03 1007.87 1007.75 1007.61 1007.49 1007.43 1007.37 1007.25 1007.13 1007.03 1006.93 1006.87 1006.77 1006.69 1006.55 1006.47 1006.33 1006.21 1006.09 1005.99 1005.87 1005.71 1005.59 1005.47 1005.33 1005.25 1005.15 1005.03 1005.03 1005.03 1005.03 1005.03 1004.99 1004.93 1004.91 1004.83 1004.83 1004.83 1004.83 1004.81 1004.83 1004.83 1004.83 1004.83 1004.87 1004.87 1004.91 1004.91 1004.87 1004.83 1004.91 1005.03 1005.25 1005.53 1005.77 1006.05 1006.31 1006.61 1006.91 1007.19 1007.41 1007.61 1007.83 1007.99 1008.15
1009.31 1009.09 1008.91 1008.71 1008.53 1008.37 1008.21 1008.09 1007.97 1007.87 1007.77 1007.65 1007.55 1007.49 1007.41 1007.27 1007.19 1007.09 1006.97 1006.91 1006.81 1006.71 1006.61 1006.53 1006.37 1006.25 1006.13 1005.99 1005.87 1005.81 1005.71 1005.61 1005.53 1005.49 1005.47 1005.43 1005.41 1005.33 1005.33 1005.33 1005.31 1005.25 1005.21 1005.19 1005.21 1005.21 1005.25 1005.27 1005.27 1005.31 1005.31 1005.33 1005.27 1005.21 1005.15 1005.19 1005.37 1005.65 1005.93 1006.19 1006.43 1006.71 1007.03 1007.33 1007.55 1007.75 1007.91 1008.05 1008.21
Wind_Speed
12 12 11 10 10 9 9 9 9 9 9 9 9 9 10 10 10 10 9 8 8 7 7 7 8 10 12 15 17 18 18 19 19 19 19 19 19 18 17 17 17 16 16 15 15 15 14 14 11 9 6 5 5 5 5 5 7 9 9 9 7 7 8 9 9 10 10 9 7
13 13 12 11 10 9 8 9 9 9 9 9 9 10 10 10 10 10 9 8 7 6 6 6 8 11 14 17 18 18 19 20 20 20 20 20 20 19 18 17 18 18 17 16 16 14 14 15 13 10 8 6 6 6 6 6 8 9 10 10 7 6 7 8 9 10 10 9 7
13 13 12 12 11 10 9 9 9 10 11 11 10 10 10 10 9 9 8 8 7 6 6 5 7 12 15 18 17 17 18 19 20 20 19 19 20 20 19 17 20 20 19 17 15 14 13 15 13 12 10 8 8 7 7 7 8 9 10 10 7 6 6 7 8 8 8 7 7
14 14 14 13 14 13 12 10 11 12 12 11 11 11 10 10 9 9 8 7 7 7 7 6 7 10 13 16 16 17 17 18 20 20 18 18 19 19 19 18 20 21 20 18 16 15 14 14 12 10 10 10 10 9 8 7 8 8 7 8 6 6 7 6 7 6 6 6 7
15 15 14 14 15 15 14 13 13 12 11 10 10 10 10 10 10 9 8 7 7 7 7 7 7 9 11 14 16 17 17 18 19 18 17 17 17 18 18 19 19 20 20 20 17 16 15 14 11 9 9 10 8 7 7 7 7 7 6 6 6 6 7 6 6 6 6 6 6
14 14 14 13 15 15 15 14 15 13 11 9 10 10 10 9 9 9 9 8 8 9 9 8 9 9 10 13 15 15 16 16 17 17 17 16 16 17 18 18 18 18 18 19 18 17 15 14 11 10 10 9 8 7 6 6 6 6 6 6 6 6 7 7 6 6 6 7 7
11 12 12 12 13 14 13 14 14 14 13 11 12 12 12 11 11 11 11 9 9 9 9 8 9 10 10 12 14 14 14 14 15 16 16 15 15 16 17 17 17 17 17 18 18 17 14 13 11 11 11 10 7 7 7 6 6 6 7 7 6 6 7 8 6 6 7 10 10
10 10 11 11 12 12 13 13 13 13 13 12 13 14 15 14 14 13 12 10 10 9 9 8 10 12 12 13 13 14 14 14 14 14 14 13 15 16 16 16 16 16 16 17 17 16 13 10 11 12 12 10 8 8 8 9 8 8 9 9 7 6 6 6 7 7 9 11 12
10 10 11 11 12 12 13 13 13 13 13 13 14 15 16 16 16 15 13 11 10 10 9 9 12 13 14 14 14 14 14 14 14 13 12 13 14 15 15 15 15 15 14 14 15 14 13 10 10 11 11 10 9 9 10 12 12 11 11 9 8 7 7 7 8 9 10 11 13
11 11 12 11 12 13 13 13 13 13 14 14 15 16 16 16 15 14 12 10 10 10 11 11 13 14 15 15 14 14 14 13 13 13 13 12 13 14 14 14 15 14 13 13 13 13 12 10 10 10 11 10 11 11 11 13 14 13 12 8 8 9 9 8 10 10 11 11 13
13 12 12 12 13 13 13 12 11 12 12 12 13 14 15 15 15 13 11 10 11 12 13 13 14 15 15 15 14 14 13 12 12 13 13 13 13 13 14 14 14 15 14 13 12 11 10 10 10 11 12 11 13 13 12 13 14 14 12 9 9 10 11 11 11 11 11 11 13
12 12 12 12 12 12 12 11 10 10 11 11 12 13 13 13 13 12 11 11 13 14 15 15 15 16 15 13 13 12 12 12 12 13 13 13 13 13 13 13 14 15 15 14 12 11 10 11 12 13 14 14 13 12 12 13 13 13 13 12 11 12 12 13 12 11 10 11 13
12 12 12 11 12 11 11 10 9 9 10 11 11 11 11 11 11 10 10 11 13 14 14 15 16 15 14 12 12 12 12 12 12 12 12 13 13 13 13 12 13 14 14 14 12 11 11 12 13 15 16 16 14 12 12 13 13 13 14 14 13 13 13 14 13 11 11 11 12
12 12 11 11 10 10 9 9 8 9 10 12 12 11 10 9 9 8 8 8 10 12 13 15 14 13 13 12 12 12 12 12 12 12 12 12 13 13 13 12 13 13 13 12 12 13 13 13 14 15 16 17 16 14 13 13 13 14 14 15 15 14 14 14 13 12 12 12 13
12 11 11 10 9 8 7 8 7 8 9 12 11 11 9 8 8 8 7 6 7 8 11 13 12 11 11 12 12 13 13 13 13 13 13 13 14 14 14 14 13 13 12 12 12 13 14 14 15 15 16 18 17 16 14 13 13 14 14 15 15 15 14 13 13 13 13 14 13
10 10 9 9 8 7 7 7 7 8 9 11 11 10 9 8 8 8 7 6 5 5 8 10 10 10 10 12 13 13 13 13 13 14 14 14 14 15 15 15 14 14 13 13 13 13 14 14 14 15 17 18 18 17 16 14 13 13 14 14 14 14 14 14 13 13 14 14 14
8 8 8 8 8 8 8 8 8 8 9 11 11 10 9 7 7 7 7 6 4 4 6 8 8 9 9 10 11 12 12 12 12 13 13 14 14 15 15 15 15 14 14 13 13 13 14 14 14 15 16 17 18 17 16 15 13 13 13 14 14 14 14 14 14 14 14 14 15
7 7 7 7 8 9 10 11 10 10 10 10 10 9 8 8 7 6 5 5 5 5 6 7 7 7 7 8 9 9 10 11 12 12 12 13 14 15 15 15 14 14 13 13 13 13 13 13 13 13 14 15 16 16 15 15 14 14 13 13 14 14 14 14 14 14 14 14 15
8 8 8 9 10 11 11 12 11 11 10 8 8 8 8 9 9 8 6 5 6 6 7 7 7 6 5 6 7 7 8 10 11 12 12 12 13 14 14 15 14 13 13 12 12 12 13 13 12 12 12 13 13 13 14 15 15 15 14 14 14 14 14 14 14 14 14 14 14
9 10 11 11 12 12 11 10 10 9 8 7 8 8 9 9 10 10 9 7 7 7 8 8 8 7 7 7 7 7 7 8 10 11 12 11 11 12 13 14 14 14 13 12 11 12 12 12 12 12 12 12 12 12 13 13 14 14 14 13 13 12 12 13 13 13 13 14 14
6 5 5 7 10 11 10 8 7 6 6 6 7 8 8 9 10 11 10 9 8 8 8 9 10 10 10 10 10 9 9 8 9 11 11 11 11 11 11 13 13 13 12 12 12 12 13 13 13 13 12 12 12 12 12 12 12 12 12 11 11 11 11 11 12 12 13 13 13
13 13 12 11 6 2 4 5 6 6 6 6 6 6 7 7 9 10 11 10 9 8 8 9 10 11 11 12 12 11 10 9 10 11 12 12 11 11 10 11 12 12 12 12 12 13 13 13 14 14 14 13 14 14 14 13 13 12 12 11 11 11 11 11 11 12 12 12 11
15 15 16 16 16 13 9 5 2 2 2 1 2 3 4 6 7 9 10 10 9 9 8 8 8 9 10 11 11 11 10 9 10 11 12 12 13 13 12 12 13 13 13 13 13 13 13 13 14 14 15 14 15 16 16 16 15 14 13 13 13 13 12 12 11 11 11 11 10
17 17 16 15 18 18 17 16 13 12 10 9 8 6 4 0 2 6 9 11 10 10 9 7 7 8 8 9 9 9 8 8 8 9 10 11 12 14 14 14 14 15 14 12 12 13 13 12 12 13 14 13 14 15 16 16 15 15 15 15 14 13 13 12 11 11 10 10 9
20 20 19 18 18 18 18 17 16 15 15 14 14 14 13 10 7 3 3 7 9 10 10 8 8 7 7 7 7 7 7 7 7 7 7 7 9 11 12 12 13 13 13 12 14 15 15 14 12 12 12 12 12 12 13 14 14 14 14 14 14 13 12 11 11 10 10 10 9
21 22 21 20 19 19 18 17 17 16 16 16 16 16 15 15 14 12 9 5 1 4 7 9 9 8 8 7 7 7 7 7 6 6 7 6 7 8 8 8 9 9 10 11 15 18 19 18 16 14 12 11 11 11 12 12 13 13 13 13 13 12 12 11 10 10 9 8 8
21 21 20 19 20 19 18 17 17 17 17 17 17 16 15 14 14 14 14 13 10 6 2 2 5 6 8 8 9 9 9 8 8 8 8 8 8 8 8 6 6 6 7 10 15 18 19 19 18 16 14 11 11 11 12 12 12 13 13 12 12 12 12 12 11 10 9 7 7
19 19 19 19 19 19 18 17 18 18 17 16 15 15 14 15 15 15 14 13 13 11 9 7 4 1 3 6 8 9 10 10 9 9 9 9 9 9 8 7 6 6 6 9 13 16 18 19 18 17 15 13 11 11 12 12 12 12 12 11 11 12 12 11 10 10 9 8 7
18 18 18 19 19 18 18 18 18 17 16 15 15 15 15 15 15 15 14 14 14 12 11 9 7 6 4 2 2 4 7 9 9 10 10 10 10 9 9 8 7 7 8 10 13 15 16 17 17 18 17 15 10 9 9 10 10 10 10 9 10 10 11 10 9 9 8 8 8
19 19 19 19 19 19 18 18 17 16 15 14 15 16 16 16 16 15 15 14 14 12 10 9 9 9 9 8 6 4 2 2 5 8 10 11 10 10 9 8 7 7 8 11 13 14 15 15 16 16 16 15 10 8 7 8 8 9 8 8 9 10 10 10 10 10 9 8 9
21 20 20 20 20 19 18 17 17 16 16 15 16 17 17 16 16 15 14 13 12 11 11 11 12 12 11 10 10 9 8 6 2 2 6 10 10 9 8 8 7 7 8 12 13 14 14 13 13 14 14 14 10 8 7 8 8 8 8 8 9 10 10 10 10 10 10 10 10
22 21 21 21 20 19 18 17 16 16 16 17 17 17 17 16 15 14 13 12 11 12 12 12 13 13 12 12 11 11 10 9 8 5 2 3 5 6 6 6 6 6 8 12 14 14 14 14 13 13 13 13 10 8 7 8 8 8 8 9 10 11 11 9 10 11 12 12 11
22 21 21 21 20 19 18 17 16 16 16 17 17 17 16 15 14 14 13 12 12 12 12 12 12 12 12 11 11 11 10 10 10 9 8 6 4 4 3 3 2 3 5 11 14 15 15 15 15 14 14 14 10 8 8 8 7 6 7 8 9 10 11 11 11 11 12 12 11
21 21 21 20 20 19 18 18 17 17 18 18 18 17 16 15 15 15 14 13 12 11 11 11 11 11 11 11 11 11 10 9 9 9 9 9 8 7 6 5 3 2 1 8 13 15 16 17 16 16 15 14 10 8 8 8 7 7 7 8 8 9 10 10 11 11 11 12 11
20 20 20 20 20 19 19 19 19 19 19 19 18 17 17 16 15 15 14 13 12 12 11 11 11 11 11 11 11 11 11 10 10 10 9 9 9 9 9 8 6 6 4 4 9 12 14 15 15 15 14 11 8 7 8 9 8 8 9 9 9 9 9 10 10 10 11 11 11
19 19 19 19 19 19 19 19 19 19 19 19 18 17 16 16 15 14 13 13 12 12 12 12 12 12 12 12 12 11 11 11 11 10 10 9 10 10 10 9 9 10 9 6 7 9 11 13 14 14 12 8 6 6 7 8 8 9 10 10 10 10 10 10 9 9 9 10 11
19 18 18 18 18 18 18 18 18 18 18 18 17 16 15 15 14 13 13 12 12 13 13 12 12 12 12 11 11 11 11 11 11 11 11 10 10 10 10 10 10 11 12 12 10 11 12 13 13 13 11 7 6 6 7 7 7 8 9 10 10 9 9 9 9 9 9 9 10
18 18 18 18 17 17 17 17 17 17 17 16 15 14 14 13 12 12 12 12 12 12 12 12 12 12 11 11 10 11 11 11 12 11 11 11 10 10 10 10 10 11 12 13 12 12 11 11 11 10 9 7 7 7 7 7 7 8 9 9 9 8 8 7 7 7 8 9 10
17 17 17 17 17 17 16 16 16 15 15 14 14 13 13 12 11 11 11 11 11 11 11 12 12 11 11 11 10 10 11 12 12 12 11 11 10 10 10 10 10 10 11 13 13 12 11 10 9 8 7 6 6 6 7 7 8 9 9 8 8 8 8 7 6 6 7 9 11
15 16 16 16 16 16 16 16 15 14 13 13 13 13 12 11 10 10 10 10 10 10 10 10 11 11 11 10 10 10 10 11 11 11 11 10 10 11 10 10 9 9 10 12 12 11 10 9 9 8 6 4 4 5 6 7 8 9 9 8 8 8 7 6 6 6 7 8 10
14 15 15 15 15 15 15 15 14 13 12 12 12 11 10 9 9 9 9 9 9 9 9 9 10 10 10 10 9 9 10 10 10 10 9 9 9 10 9 9 8 8 9 10 11 11 10 9 9 7 6 4 3 3 5 6 8 9 9 8 8 8 7 7 6 6 6 7 8
Wind_Direction
216 216 215 214 214 215 217 218 220 222 223 224 226 227 229 231 233 233 231 226 222 219 218 220 224 219 209 196 188 186 186 186 185 184 185 186 186 184 180 177 175 172 168 165 164 163 162 159 157 155 156 161 171 177 180 177 171 166 163 161 163 169 175 178 181 183 183 183 186
219 218 217 216 215 216 217 218 220 221 222 224 225 227 228 229 232 232 230 225 220 216 215 218 226 223 213 198 188 184 184 184 183 182 183 185 184 182 179 177 176 172 168 162 163 163 162 159 156 155 154 156 167 179 186 186 175 167 162 161 163 171 179 182 183 183 183 183 184
221 221 219 218 216 216 216 216 217 218 220 222 223 224 225 227 229 230 229 225 220 216 214 217 225 221 211 195 186 182 181 181 179 179 179 182 181 179 177 176 175 173 169 163 164 164 162 159 157 154 153 154 165 177 185 187 176 166 160 162 167 176 183 187 184 182 181 183 184
219 219 218 216 216 217 219 219 219 218 217 219 221 222 223 224 226 227 227 225 222 219 217 215 223 217 206 189 180 178 178 178 176 175 174 175 175 174 173 172 172 171 169 165 163 163 161 159 158 155 153 156 165 175 182 182 169 161 157 165 173 182 186 186 182 179 179 182 185
215 214 213 212 213 215 218 221 221 220 218 217 218 219 221 222 225 225 224 221 220 217 213 209 217 213 200 181 172 170 172 174 173 171 170 169 170 169 169 169 170 169 167 165 162 160 160 159 158 157 157 159 167 177 180 170 157 152 155 170 182 186 186 183 179 178 178 181 184
213 212 211 211 211 213 215 219 221 221 220 218 218 218 218 219 220 220 219 217 217 214 210 205 212 208 194 172 163 162 165 168 170 169 167 164 164 165 165 166 166 166 165 164 162 160 158 159 160 160 161 160 168 174 172 156 148 152 165 183 189 188 184 182 178 177 177 179 182
215 214 213 213 212 213 214 216 218 220 221 221 220 219 218 218 218 218 217 214 213 210 206 203 204 198 184 166 158 157 159 163 165 165 162 159 159 160 161 162 162 162 163 164 163 162 160 161 165 167 168 166 165 166 164 155 157 169 183 193 193 188 185 183 178 176 177 180 182
222 221 219 218 218 219 219 217 216 216 218 220 220 220 219 218 218 217 215 211 209 206 203 200 195 188 177 163 156 154 155 157 159 159 157 154 153 154 156 157 158 159 161 163 164 163 161 162 168 172 173 169 163 159 160 162 172 184 194 198 196 191 187 183 179 178 179 181 183
225 225 224 223 223 223 224 223 219 216 216 218 219 219 218 218 218 216 214 210 205 200 196 194 187 180 172 162 156 154 154 155 154 153 150 148 147 149 150 152 155 156 158 161 164 163 161 159 167 172 175 173 166 160 159 166 177 187 195 198 196 194 190 185 182 181 181 182 184
221 222 223 223 222 223 224 225 223 220 219 219 218 217 216 216 216 214 211 206 198 192 189 187 180 174 169 162 157 155 155 154 151 149 146 144 144 146 148 151 154 155 156 160 162 162 161 160 166 172 176 177 172 166 164 170 179 186 192 196 195 193 192 190 186 184 184 185 187
219 219 220 221 220 220 221 223 224 224 223 224 220 216 213 212 211 209 205 200 192 187 184 180 175 171 168 163 159 156 155 153 151 148 145 143 143 145 148 151 154 156 157 160 161 161 162 163 168 173 177 180 178 175 173 175 181 185 189 193 194 194 194 194 189 187 186 187 189
220 220 220 219 217 217 218 220 223 224 226 228 223 216 209 206 204 202 199 196 190 184 179 175 172 169 167 163 159 156 154 153 151 148 146 145 145 145 147 151 154 157 159 161 162 163 165 168 171 174 177 180 181 180 179 179 182 186 190 193 194 195 196 195 192 190 189 189 191
224 223 221 217 214 213 215 218 222 223 225 226 222 214 205 200 195 194 195 198 190 182 175 171 170 168 166 162 158 155 154 153 153 152 150 149 149 149 150 152 155 158 160 162 164 167 170 172 175 177 180 182 183 182 180 179 183 188 191 193 194 195 196 196 193 191 190 190 194
223 224 223 219 213 211 212 217 221 223 223 222 217 210 202 196 193 193 196 200 192 181 172 168 168 168 167 164 159 156 155 155 156 157 157 157 156 156 157 158 160 161 162 164 167 170 173 176 178 180 183 186 187 185 182 180 184 189 192 194 194 195 196 195 192 190 190 192 196
218 220 222 222 217 214 214 219 224 226 224 219 211 204 197 195 195 197 200 202 193 178 167 162 163 165 166 165 162 160 158 158 160 162 163 164 164 164 164 165 165 165 165 166 168 172 176 178 181 183 185 188 190 190 188 187 189 192 194 195 195 195 195 194 191 191 192 194 197
215 217 221 223 222 221 221 224 229 230 225 215 202 193 189 189 193 198 201 202 192 171 157 152 151 155 159 162 161 160 160 161 164 166 168 169 169 170 170 169 169 169 168 168 170 174 178 180 182 184 186 189 191 193 194 195 197 198 199 198 196 196 195 193 191 192 194 195 197
218 220 223 226 227 228 228 230 232 231 223 207 188 179 176 178 182 188 193 197 193 172 153 144 142 145 150 156 159 159 160 161 165 169 172 173 174 174 174 173 171 170 169 170 172 175 178 181 182 183 185 186 189 192 195 198 202 204 204 201 199 197 196 194 192 193 194 195 197
224 225 227 228 229 229 230 230 230 227 216 195 175 166 163 163 162 163 167 176 183 176 163 153 150 147 147 151 155 157 159 162 166 170 173 174 175 176 176 175 173 171 170 171 173 176 178 181 182 182 182 183 184 187 191 196 202 205 206 203 201 200 198 196 194 194 195 197 199
231 231 231 230 229 228 227 225 224 219 208 184 167 160 157 154 150 148 147 153 166 170 169 165 168 166 161 158 158 159 161 164 167 169 172 173 175 176 177 176 174 173 172 173 175 177 179 181 181 180 180 180 180 182 186 193 200 203 204 203 202 201 199 196 195 195 196 198 199
250 242 236 228 223 222 220 218 214 206 192 169 164 164 163 156 149 147 148 153 160 165 167 167 172 177 181 180 177 175 175 174 174 173 173 173 174 175 176 176 175 175 175 176 177 179 180 182 182 181 180 179 178 180 183 189 195 199 201 201 200 199 197 195 194 194 196 198 198
333 311 283 256 228 216 210 205 193 175 157 150 160 168 169 160 152 150 152 156 160 164 167 168 172 176 180 183 185 187 188 189 186 183 180 179 179 178 176 174 174 175 177 180 181 182 183 184 185 185 184 182 182 183 186 189 193 195 197 197 197 196 196 194 192 192 194 195 195
26 23 18 8 349 283 208 191 168 148 135 139 157 171 175 171 157 153 152 155 159 164 168 171 172 173 175 177 180 182 183 186 188 187 186 185 185 182 179 174 174 176 179 183 184 184 184 185 186 187 186 185 186 188 189 192 194 194 195 194 193 194 195 195 192 190 189 189 188
34 33 31 26 23 22 23 25 49 70 74 87 145 173 181 182 165 155 151 153 159 165 170 173 173 173 172 172 172 171 172 174 179 182 183 184 184 183 181 177 177 180 183 185 184 184 183 184 186 186 186 185 185 186 187 189 192 194 195 194 193 192 193 194 190 186 182 180 179
36 35 33 31 30 30 31 32 34 34 33 30 28 27 27 63 167 161 157 157 161 165 169 172 174 174 172 169 167 165 164 164 169 172 175 178 179 180 180 179 181 183 186 187 186 184 183 183 184 185 184 183 183 183 183 183 185 188 191 192 190 188 188 188 185 182 178 175 173
36 35 34 32 31 31 32 33 35 35 35 34 34 31 28 21 18 30 144 161 165 167 169 170 172 175 176 174 172 172 170 167 163 162 164 167 170 173 176 178 181 183 185 186 184 184 183 183 183 183 183 181 180 179 179 178 179 181 183 184 182 180 180 181 181 180 177 173 171
34 34 32 30 30 30 30 30 31 33 34 34 34 34 32 28 24 21 18 21 85 162 167 168 171 174 176 176 178 183 185 182 172 164 159 158 162 166 171 175 178 180 181 181 181 182 184 184 184 182 181 180 179 178 179 181 180 178 177 176 176 175 175 176 178 177 176 171 166
35 33 31 30 30 30 29 28 29 31 32 33 33 34 33 32 31 28 24 18 12 15 44 137 164 170 173 175 177 181 183 184 177 171 166 164 165 167 170 172 174 176 176 175 177 180 183 185 184 183 181 182 182 183 184 184 182 179 177 176 175 174 173 173 172 171 167 160 150
35 34 33 33 32 30 28 28 29 29 30 30 31 32 33 34 34 32 29 24 21 20 19 18 14 39 170 171 174 177 178 177 175 173 171 169 169 170 171 172 173 174 172 170 174 179 183 185 185 184 185 187 188 186 184 181 179 177 177 176 175 173 171 169 167 163 157 146 135
33 34 34 35 33 32 30 29 29 28 28 28 29 31 33 34 33 31 28 25 24 24 23 21 15 12 12 25 138 164 170 174 174 172 170 168 169 170 172 172 173 172 169 167 173 178 182 184 184 186 187 188 186 182 178 174 172 172 172 172 172 169 167 164 161 156 150 139 129
28 30 32 33 32 31 30 29 28 27 27 27 28 30 31 32 30 29 27 25 24 23 23 26 29 28 24 17 18 25 57 155 168 169 168 168 169 170 172 171 172 170 167 167 173 177 180 181 181 181 180 177 170 167 167 166 165 166 166 166 166 163 160 156 153 151 146 138 129
25 26 28 29 30 29 28 27 27 27 27 27 28 29 30 30 28 27 25 24 22 21 23 28 32 32 29 26 24 21 18 12 31 147 165 169 168 168 168 168 168 166 166 169 174 177 178 178 177 173 168 162 158 157 161 162 162 163 162 162 160 158 154 150 150 149 146 141 134
23 24 26 27 27 26 26 25 26 27 28 29 29 29 28 27 26 25 24 23 22 22 24 28 31 31 30 29 28 26 22 17 13 17 42 132 153 157 159 161 163 165 168 173 176 178 179 179 177 171 163 156 154 154 157 159 159 158 156 155 154 153 151 149 148 148 147 144 140
22 23 24 24 24 23 23 23 24 25 27 29 29 28 27 24 23 22 22 21 22 23 25 28 30 31 31 31 30 29 26 24 21 19 20 28 51 77 97 113 129 159 175 180 181 181 182 183 180 173 166 159 155 155 156 155 153 151 149 149 149 148 146 145 146 147 147 145 141
19 20 21 22 21 21 20 20 21 23 25 27 27 26 24 22 21 20 19 18 18 20 23 26 29 31 32 32 32 30 28 26 25 25 25 27 35 42 47 43 27 2 234 190 185 184 184 184 180 172 164 158 155 153 152 149 146 143 142 141 141 141 140 140 142 143 144 143 140
18 19 19 20 19 19 19 19 19 21 22 23 22 22 21 21 20 18 16 14 16 18 20 22 26 30 32 33 32 30 28 25 25 26 28 32 38 40 39 33 22 12 9 175 176 175 174 173 166 158 152 147 145 144 144 142 139 137 136 135 133 132 132 133 135 137 139 139 139
17 17 18 18 18 18 18 18 19 20 21 21 19 18 17 17 17 16 14 13 15 17 19 20 23 26 30 32 32 31 28 25 24 25 28 33 40 43 42 37 29 27 33 69 115 134 140 140 137 134 131 128 128 130 132 132 130 129 128 127 126 126 126 127 130 133 136 138 139
16 17 18 18 18 17 17 17 18 19 19 19 17 16 14 14 13 13 12 12 15 17 18 19 21 23 26 29 31 32 31 29 27 27 28 31 38 43 46 43 36 34 37 50 73 92 106 115 119 121 121 119 120 121 121 120 120 119 119 118 117 117 118 120 123 128 132 136 139
15 16 17 18 17 17 16 17 17 18 17 16 15 14 13 12 12 11 11 12 14 15 16 17 18 19 21 24 29 32 33 33 32 30 29 28 32 38 44 47 42 39 40 46 60 73 87 100 109 114 117 119 121 121 119 116 115 114 113 112 109 108 108 111 115 120 126 132 136
14 15 16 17 17 17 16 17 17 16 15 14 13 12 12 12 11 10 10 11 13 15 15 16 16 15 16 19 24 29 32 34 34 33 31 29 29 33 39 46 45 43 44 48 56 64 73 83 91 97 103 111 118 120 120 117 115 114 112 111 109 106 104 106 110 115 120 126 131
13 14 15 16 16 16 16 16 15 13 12 12 12 11 11 11 10 10 10 12 13 14 15 16 15 14 15 17 21 25 28 31 32 33 32 31 30 32 35 42 43 44 47 50 55 60 65 70 74 77 81 88 104 115 119 120 118 117 117 116 115 113 110 109 112 116 120 124 128
13 14 15 15 15 15 14 13 12 11 10 11 10 9 8 8 9 11 12 14 15 15 16 16 16 16 17 17 20 23 25 27 28 29 31 33 33 33 34 37 39 41 46 52 57 61 63 66 68 69 69 70 84 106 118 122 122 123 123 124 123 121 119 117 116 118 121 124 127